Location: Broletto
(44.6000°N, 10.5833°E)
Time: 08:01:42
(UTC+00:00)

SJ 16-02 - Pass Details

Date: 18 April 2021
Orbit: 605 x 617 km, 75.0° (Epoch: 06 May)

Event Time Altitude Azimuth Distance (km) Brightness Sun altitude
Exits shadow 23:56:02 11° 67° (ENE) 1,918 4.2 -33.5°
Drops below altitude 10° 23:56:22 10° 64° (ENE) 1,981 4.3 -33.5°
Sets 23:59:35 0° 39° (NE) 2,895 5.6 -33.4°
